SCP
1 1 0 0 0 0 0 0 0 0 0 0 0 0 0 0 0 0 0 0 0 0 1 1 1 1 1 1 1 1 1 1 1 1 1 1 1 1 1 0 0 1 1 1 0 0 0 1 1
1 0 0 0 0 0 0 0 0 0 0 0 0 0 0 0 0 0 0 0 0 0 1 1 1 1 1 1 1 1 1 1 1 1 1 1 0 1 1 1 0 1 1 1 1 0 0 1 1
0 0 0 0 0 0 0 0 0 0 0 0 0 0 0 0 0 0 0 0 0 0 0 1 1 1 1 1 1 1 1 1 1 1 1 0 0 0 1 1 1 1 0 1 1 0 0 1 1
0 0 0 0 0 0 0 0 0 0 0 0 0 0 0 0 0 0 0 0 0 0 0 0 1 1 1 1 1 1 1 1 1 1 1 0 0 0 0 0 0 0 0 0 0 0 0 0 1
0 0 0 0 0 0 0 0 0 0 0 0 0 0 0 0 0 0 0 0 0 0 0 0 1 1 1 1 1 1 1 1 1 1 1 0 0 0 0 0 0 0 0 0 0 0 0 0 0
0 0 0 0 0 0 0 0 0 0 0 0 0 0 0 0 0 0 0 0 0 0 0 0 1 1 1 1 1 1 1 0 0 1 1 0 0 0 0 0 0 0 0 0 0 0 0 0 0
0 0 0 0 0 0 0 0 0 0 0 0 0 0 0 0 0 0 1 0 0 0 0 0 1 1 1 1 1 1 1 1 0 0 1 0 0 0 0 0 0 0 0 1 1 1 1 1 1
0 0 0 0 0 0 0 0 0 0 0 0 0 0 0 0 0 1 1 1 1 0 0 0 0 0 0 0 1 1 1 1 0 0 0 0 1 1 0 0 0 0 0 1 1 1 1 1 1
0 0 0 0 0 0 0 0 0 0 0 0 0 0 0 0 1 1 1 1 1 0 0 0 0 0 0 0 0 0 1 0 0 0 0 0 1 1 1 0 0 0 0 1 1 1 1 1 1
0 0 0 0 0 0 0 0 0 0 0 0 0 0 0 0 1 1 1 1 0 0 0 0 0 0 0 0 0 0 0 0 0 0 0 1 1 1 1 1 0 0 0 1 1 1 1 0 0
0 0 0 0 0 0 0 0 0 0 0 0 0 0 0 1 1 1 1 1 0 0 0 0 0 1 1 0 0 0 0 0 0 0 0 1 1 1 1 1 0 0 0 0 0 0 0 0 0
0 0 0 0 0 0 0 0 0 0 0 0 0 0 1 1 1 1 1 0 0 0 0 0 0 1 1 1 0 0 0 0 0 0 0 1 1 1 1 1 0 0 0 0 0 0 0 0 0
0 0 0 0 1 1 1 0 0 0 0 0 0 1 1 1 1 1 1 0 0 0 1 1 1 0 0 0 0 0 0 0 0 0 0 0 1 1 1 1 0 0 0 0 0 0 0 0 0
0 0 0 1 1 1 1 1 0 0 0 0 0 0 0 0 0 0 0 0 0 0 1 1 1 0 0 0 0 0 0 0 0 0 0 0 0 1 1 1 0 0 0 0 0 0 0 0 0
0 0 1 1 2 1 1 1 0 0 0 0 0 0 0 0 0 0 0 0 0 0 1 1 1 0 0 0 0 0 0 0 0 0 0 0 0 0 0 0 0 0 0 0 0 0 0 0 0
0 0 1 1 2 2 1 1 0 0 0 0 0 0 0 0 0 0 0 0 0 0 1 1 1 1 0 0 0 0 0 0 0 0 0 0 0 0 0 0 0 0 0 0 0 0 0 0 0
0 0 0 1 1 1 1 1 1 0 0 0 0 0 0 0 0 0 0 0 0 0 1 1 1 1 0 0 0 0 0 0 0 0 0 0 0 0 0 0 0 0 0 0 0 0 0 0 0
0 0 0 1 1 1 1 1 1 0 0 0 0 0 0 0 0 0 0 0 0 0 1 1 1 1 1 0 0 0 0 0 0 0 0 0 0 0 0 0 0 0 0 0 0 0 0 0 0
0 0 0 0 1 1 1 1 1 0 0 0 0 0 0 0 0 0 0 0 0 0 0 1 2 1 1 1 0 0 0 0 0 0 0 0 0 0 0 0 0 0 0 0 0 0 0 0 0
0 0 0 0 1 1 0 0 1 0 0 0 0 0 0 0 0 0 0 0 0 0 0 1 2 1 1 1 1 0 0 0 0 0 0 0 0 0 0 0 0 0 0 0 0 0 0 0 0
0 0 0 0 0 0 0 0 0 0 0 0 0 0 0 0 0 0 0 0 0 0 0 1 2 2 1 1 1 1 0 0 0 0 0 0 0 0 0 0 0 0 0 0 0 0 0 0 0
0 0 0 0 0 0 0 0 0 0 0 0 0 0 0 0 0 0 0 0 0 0 0 1 2 2 2 1 1 1 1 0 0 0 0 0 0 0 0 0 0 0 0 0 0 0 0 0 0
0 0 0 0 0 0 0 0 0 0 0 0 0 0 0 0 0 0 0 0 0 0 0 1 2 2 2 2 1 1 1 1 0 0 0 0 0 0 0 0 0 0 0 0 0 0 0 0 0
0 0 0 0 0 0 0 0 0 0 0 0 0 0 0 0 0 0 0 0 0 0 0 1 2 2 2 2 2 1 1 1 1 0 0 0 0 0 0 0 0 0 0 0 0 0 0 0 0
0 0 0 0 0 0 0 0 0 0 0 0 0 0 0 0 0 0 0 0 0 0 0 1 2 2 2 2 2 1 1 1 1 0 0 0 0 0 0 0 0 0 0 0 0 0 0 0 0
0 0 0 0 0 0 0 0 0 0 0 0 0 0 0 0 0 0 0 0 0 0 0 1 1 2 2 2 2 1 1 1 1 0 0 0 0 0 0 0 0 0 0 0 0 0 0 0 0
0 0 0 0 0 0 0 0 0 0 0 0 0 0 0 0 0 0 0 0 0 0 0 0 1 1 2 2 1 1 1 1 1 0 0 0 0 0 0 0 0 0 0 0 0 0 0 0 0
0 0 0 0 0 0 0 0 0 0 0 0 0 0 0 0 0 0 0 0 0 0 0 0 0 1 1 1 1 1 1 0 0 0 0 0 0 0 0 0 0 0 0 0 0 0 0 0 0
0 0 0 0 0 0 0 0 0 0 0 0 0 0 0 0 0 0 0 0 0 0 0 0 0 0 1 1 1 1 1 0 0 0 0 0 0 0 0 0 0 0 0 0 0 0 0 0 0
0 0 0 0 0 0 0 0 0 0 0 0 0 0 0 0 0 0 0 0 0 0 0 0 0 0 0 1 1 1 1 0 0 0 0 0 0 0 0 0 0 0 0 0 0 0 0 0 0
Wind_Speed
2 3 3 4 7 7 3 2 1 1 2 2 3 6 6 4 2 2 2 1 2 2 2 2 3 4 4 5 5 6 6 7 7 7 7 7 7 7 7 7 7 8 8 8 8 8 8 8 8
1 2 4 6 7 4 2 2 1 1 3 3 4 4 5 3 2 2 0 1 3 3 2 2 3 3 4 4 5 5 6 6 6 7 7 7 6 6 6 7 7 7 7 8 8 8 8 8 8
1 3 5 6 5 3 1 1 1 2 3 2 3 4 3 2 1 1 2 3 3 2 1 1 3 3 3 4 4 5 5 5 6 6 6 6 6 6 6 7 7 7 7 8 8 8 8 8 8
3 5 6 6 4 1 2 2 2 3 3 4 3 4 2 2 1 2 2 4 3 2 1 1 3 3 3 3 3 4 4 4 5 5 6 6 6 6 6 6 6 7 7 7 7 8 8 8 8
4 5 6 4 2 2 1 1 2 3 2 3 3 3 2 3 2 3 4 4 3 2 1 1 3 3 3 3 3 3 3 4 4 4 5 5 5 6 6 6 6 7 7 7 7 8 8 9 9
5 5 5 2 1 2 1 1 3 4 3 2 3 3 1 2 2 2 3 3 2 1 1 0 2 3 3 2 2 2 2 3 3 3 4 4 4 5 5 5 6 7 7 7 8 8 8 9 10
5 5 4 3 1 1 0 1 3 4 3 2 4 4 0 1 1 3 3 3 3 2 2 1 0 0 1 1 1 2 2 2 3 3 3 4 4 4 5 5 6 7 7 7 8 9 9 10 10
5 5 3 2 2 1 1 2 2 3 2 2 4 5 3 3 2 4 4 3 2 2 2 1 1 1 1 1 0 1 1 2 3 4 4 4 5 4 5 5 6 6 7 8 9 10 10 10 10
4 6 2 3 4 2 1 2 1 2 4 2 2 2 2 5 5 5 3 2 2 1 1 1 1 1 1 1 1 1 2 2 3 4 5 5 3 3 3 4 6 7 8 8 9 10 11 11 10
5 4 3 3 4 4 3 2 2 3 3 2 2 3 4 6 6 4 2 1 0 1 1 1 1 1 1 1 1 2 2 2 2 2 3 3 3 2 4 5 7 8 9 9 11 11 10 8 5
3 4 2 1 3 4 3 2 2 5 1 3 4 4 5 5 4 3 3 1 1 1 0 0 0 0 1 1 1 1 1 1 2 2 2 2 2 2 3 3 4 5 7 5 7 7 5 5 4
3 1 2 2 3 4 3 3 3 3 4 4 6 7 6 5 4 4 3 2 1 1 1 1 0 0 1 1 1 1 1 1 1 1 2 2 2 2 2 2 3 3 3 4 4 4 5 6 6
2 1 1 2 3 4 4 3 3 1 1 4 6 6 6 5 3 2 2 2 1 1 1 0 1 1 1 1 0 1 1 1 1 1 1 2 2 2 2 2 2 3 3 3 3 4 5 5 5
2 2 2 2 3 2 4 1 1 2 3 5 6 5 5 5 4 2 1 1 1 1 1 0 1 1 1 1 1 0 1 1 1 1 1 2 2 2 2 3 3 3 3 3 3 4 4 4 4
2 3 3 1 1 1 4 2 2 2 5 5 4 4 4 3 3 3 3 2 2 2 1 1 2 1 1 1 1 1 1 1 1 1 1 2 2 3 3 3 3 2 3 4 4 4 4 4 4
3 3 1 3 1 1 5 4 5 2 6 5 3 3 3 2 2 2 2 2 1 1 1 1 1 2 1 1 1 1 1 1 1 1 1 2 3 4 3 3 3 3 3 3 3 4 4 4 4
3 0 2 3 1 2 4 4 3 2 6 5 4 3 3 2 1 1 1 2 2 2 2 1 2 2 1 1 2 2 1 1 1 1 1 2 3 4 4 3 3 3 3 3 3 3 3 4 4
3 2 2 3 2 3 3 4 3 2 5 5 4 3 3 3 3 2 2 1 1 2 2 2 2 2 2 2 2 2 2 2 1 1 1 2 2 4 4 3 3 3 3 3 3 4 3 3 3
3 2 2 4 2 3 3 4 4 2 3 4 4 3 4 4 2 1 1 2 2 2 2 2 2 2 2 1 1 1 1 1 1 1 2 2 2 3 4 3 3 3 3 3 4 4 4 3 2
3 2 2 3 0 3 2 3 3 2 4 4 5 5 4 2 1 1 1 2 2 2 2 2 2 1 1 1 1 1 1 1 1 1 2 2 2 2 3 4 3 3 4 4 4 4 3 2 1
2 4 4 3 1 2 1 3 3 2 1 0 1 2 3 4 4 2 2 2 2 2 2 2 2 1 1 2 2 2 2 2 2 2 1 2 2 2 2 3 4 4 4 4 4 4 4 3 1
3 4 4 2 1 2 1 3 5 2 2 1 2 1 2 3 3 3 2 2 2 2 2 2 2 2 1 2 3 3 2 1 0 0 0 1 1 2 2 3 3 4 3 4 4 3 2 3 2
4 1 2 1 2 1 1 2 6 1 2 4 3 3 3 3 3 3 3 3 2 2 2 2 2 2 2 2 3 3 2 1 1 1 2 1 1 1 1 2 2 3 3 4 3 3 2 2 3
3 5 5 4 4 1 3 3 6 3 5 4 3 3 3 3 2 2 2 2 1 1 1 1 2 1 1 2 2 2 2 2 2 1 1 1 1 1 1 1 2 2 2 3 4 3 3 3 3
4 5 3 4 3 4 2 2 6 5 4 4 4 5 4 3 2 2 2 2 2 1 1 1 2 1 1 2 2 2 2 2 2 2 1 0 0 1 1 1 2 2 2 3 3 3 3 4 3
2 6 6 4 4 4 2 4 6 3 2 1 2 3 3 2 2 2 2 2 3 2 1 1 2 2 2 2 2 1 2 2 2 2 2 2 2 2 2 1 1 2 2 3 3 3 3 3 3
3 2 4 5 1 1 4 4 5 2 3 2 2 2 2 2 2 2 1 2 2 2 2 2 2 2 2 3 2 2 2 2 2 2 2 2 2 2 2 2 2 2 2 2 3 2 3 3 3
3 6 4 4 3 3 4 3 4 3 2 1 0 1 1 1 1 1 1 1 2 2 2 1 2 2 2 2 2 2 2 2 2 1 2 2 2 2 2 2 2 2 2 2 2 2 2 3 3
2 3 4 3 3 4 3 5 3 5 4 3 3 2 2 2 2 2 2 1 1 1 1 1 1 0 1 1 2 2 2 2 2 2 2 3 2 2 2 2 2 2 2 2 2 2 2 3 2
1 3 5 4 3 3 3 6 3 2 2 2 2 1 1 1 1 1 1 1 0 0 1 1 1 1 2 2 1 2 2 2 2 2 3 2 2 2 2 2 2 2 2 2 3 3 3 3 4
Wind_Direction
57 82 83 59 53 51 41 346 354 49 50 38 58 78 90 83 94 130 261 170 166 152 161 163 134 117 107 94 88 85 85 83 83 83 84 86 87 87 89 87 88 88 87 87 84 80 79 80 80
96 93 57 57 75 68 355 332 37 58 134 132 72 73 75 67 72 112 290 177 143 141 144 156 145 127 116 104 95 88 86 84 79 80 82 84 86 85 85 87 87 86 85 85 83 81 80 81 81
110 63 74 66 82 132 165 293 115 65 91 85 67 55 74 77 93 168 218 159 127 121 117 160 150 136 121 108 100 94 91 87 81 78 80 84 87 87 84 84 82 84 84 83 82 81 81 82 82
84 48 55 68 71 213 195 196 145 105 53 45 87 64 47 10 161 178 141 130 124 119 118 186 161 148 134 117 107 103 99 92 83 79 79 81 85 86 85 83 82 83 85 84 83 81 80 84 87
62 71 62 57 35 343 318 174 126 100 77 48 86 95 32 354 67 105 116 124 133 140 160 203 171 161 149 132 113 100 105 100 88 80 78 78 83 83 83 84 82 84 85 85 83 83 82 82 85
59 67 81 89 5 352 355 30 99 92 96 89 99 108 28 0 84 107 106 109 117 136 155 150 174 163 156 140 127 106 98 91 84 78 78 81 83 81 79 83 86 88 87 85 84 82 82 85 84
97 89 112 139 124 358 42 88 116 119 111 141 135 114 342 316 144 108 96 90 78 72 69 35 30 111 143 144 134 116 88 73 70 74 79 82 84 85 82 86 88 89 89 87 84 83 81 84 83
115 98 92 125 142 240 188 108 116 123 127 114 120 135 197 224 137 98 80 70 65 61 54 44 35 32 27 7 64 106 78 66 63 63 69 74 73 68 71 74 81 90 92 90 86 83 80 79 80
84 80 133 188 173 202 147 117 89 90 101 87 103 155 177 131 110 95 71 42 34 47 17 26 35 23 23 10 8 31 31 47 55 55 57 61 54 47 49 62 81 91 92 87 84 81 76 73 71
82 114 200 197 174 159 138 133 132 95 78 69 66 65 96 110 117 121 129 146 286 303 313 350 355 2 17 31 36 23 28 33 46 55 51 54 56 51 57 52 78 84 82 78 77 75 70 65 56
108 152 179 142 157 138 130 119 106 121 128 195 172 159 132 125 131 149 168 176 211 227 281 269 274 322 47 44 39 38 35 39 46 56 60 63 59 55 53 51 57 62 69 64 64 62 58 60 61
105 115 150 153 140 128 140 131 107 144 205 192 165 149 142 146 166 181 187 200 196 146 230 276 163 67 54 73 53 65 66 54 54 64 72 77 71 64 64 66 63 61 64 70 66 68 65 63 63
99 109 81 111 120 123 110 121 143 222 210 112 116 124 143 159 179 189 171 160 166 188 224 280 85 74 58 81 63 80 78 80 83 74 81 101 104 97 88 84 80 76 76 78 76 73 69 66 63
134 104 73 79 102 112 116 93 110 253 122 116 126 146 161 169 176 149 146 166 185 219 224 209 115 103 94 100 110 119 111 110 91 84 103 114 117 115 106 100 91 83 82 81 79 78 77 71 68
90 78 26 13 111 156 110 6 250 213 127 130 148 159 161 175 169 169 178 179 199 215 198 195 165 114 109 110 118 108 108 122 111 94 117 124 122 122 117 112 105 98 93 92 86 77 75 77 72
58 59 352 297 158 156 129 248 269 169 139 150 164 162 166 188 192 194 174 170 176 155 149 192 149 111 87 78 68 73 87 94 88 101 121 127 127 128 123 119 116 111 98 93 93 85 81 75 73
35 86 249 293 242 148 150 231 274 157 151 166 182 185 185 188 207 217 189 174 157 145 137 114 92 104 100 77 58 52 60 78 76 75 93 125 131 135 131 128 124 118 106 97 102 90 97 95 87
215 211 241 258 265 143 175 237 270 186 174 186 193 198 202 200 215 210 185 156 119 109 111 111 90 82 83 64 57 48 44 39 53 67 74 111 129 133 126 126 130 125 115 106 104 103 89 94 98
169 179 236 256 232 164 209 245 262 218 189 197 203 209 214 221 232 169 145 117 93 86 97 106 96 90 97 75 74 67 44 23 36 50 70 100 121 131 131 133 136 135 132 133 128 115 103 90 99
162 181 258 290 312 159 210 269 271 213 206 205 201 208 209 199 139 134 116 110 110 122 132 123 122 122 122 120 123 117 109 68 58 36 49 63 99 120 140 145 150 143 130 131 137 128 117 109 94
199 194 214 230 14 50 80 320 300 302 317 291 203 197 194 184 179 167 140 143 143 168 183 166 155 130 105 86 82 68 54 43 38 30 33 38 82 105 117 142 148 151 150 157 160 151 139 143 103
238 228 198 193 129 278 140 272 282 277 295 270 238 202 194 189 171 158 156 166 183 204 188 161 147 128 101 100 104 109 104 107 259 309 360 35 77 102 114 135 148 155 157 161 173 166 149 142 149
213 143 132 148 151 346 348 195 283 314 268 264 246 213 205 193 172 170 177 187 186 183 167 154 132 119 112 117 122 118 103 110 62 36 46 32 32 76 114 139 148 156 162 170 172 168 163 156 156
129 72 58 50 73 293 249 191 276 250 237 253 229 202 202 187 172 174 171 142 123 111 120 130 132 141 137 127 126 134 131 122 101 67 59 16 5 16 72 145 166 170 170 177 182 179 174 174 161
84 90 33 0 5 256 255 192 251 264 251 226 211 196 193 176 162 158 151 159 159 151 157 157 144 161 164 150 149 159 158 163 171 179 187 197 323 294 270 193 182 186 192 185 179 175 182 179 175
151 139 158 198 225 278 317 231 259 277 283 226 183 168 165 163 169 178 187 189 190 189 177 153 170 187 183 183 196 184 181 184 196 195 195 209 217 230 236 216 199 200 191 187 180 179 189 184 190
136 152 160 136 166 271 283 289 302 349 22 52 94 125 164 183 187 195 193 194 200 195 194 189 192 213 205 203 201 195 205 209 213 214 206 222 233 234 214 200 198 203 192 186 178 186 192 185 191
133 143 104 121 163 251 284 275 260 263 273 306 162 182 210 193 189 191 192 201 207 205 202 175 194 216 211 202 207 212 222 225 219 211 220 231 242 244 208 202 201 198 188 178 176 188 189 184 196
73 94 110 120 157 167 252 273 238 219 217 211 227 218 209 194 200 202 212 222 219 199 167 191 225 221 223 216 221 221 220 215 208 214 233 231 228 226 209 210 202 199 197 186 177 197 192 192 205
185 166 148 159 213 177 185 265 299 235 210 192 228 245 224 210 206 180 174 145 161 220 225 225 238 231 232 217 208 224 228 217 219 235 239 231 225 221 213 208 206 208 202 193 188 200 203 200 203